Location: ??
(35.4032°N, 139.3073°E)
Time: 12:24:59
(UTC+00:00)

CZ-2C R/B - Pass Details

Date: 13 April 2024
Orbit: 666 x 779 km, 98.4° (Epoch: 26 May)

Event Time Altitude Azimuth Distance (km) Brightness Sun altitude
Rises 18:11:56 0° 13° (NNE) 3,264 6.4 -23.5°
Reaches altitude 10° 18:14:15 10° 13° (NNE) 2,336 5.6 -23.0°
Maximum altitude 18:19:27 87° 104° (ESE) 784 2.5 -22.1°
Enters shadow 18:21:38 36° 191° (S) 1,218 3.2 -21.8°
